CW2234 Weather Reports


Display with metric or nautical units.
time (UTC)temp
F
wind
direction
speed
MPH
gust
MPH
rain 1hr
in
rain 24hr
in
rain mn
in
humidity
%
barometer
mb
20260506111552 55 0 0.0 0.0 0.00 0.00 0.00 88 1017.2
20260506110109 56 0 0.0 0.0 0.00 0.00 0.00 87 1017.1
20260506104608 56 0 0.0 0.0 0.00 0.00 0.00 87 1017.2
20260506103052 56 0 0.0 2.0 0.00 0.00 0.00 88 1017.2
20260506101552 56 104 0.0 2.0 0.00 0.00 0.00 88 1017.1
20260506094600 57 0 0.0 1.0 0.00 0.00 0.00 87 1017.1
20260506093052 58 0 0.0 1.0 0.00 0.00 0.00 87 1017.0
20260506091552 58 0 0.0 1.0 0.00 0.00 0.00 87 1017.1
20260506090053 58 0 0.0 2.0 0.00 0.00 0.00 86 1017.3
20260506084618 58 0 0.0 1.0 0.00 0.00 0.00 85 1017.4
20260506083053 58 0 0.0 2.0 0.00 0.00 0.00 84 1017.5
20260506081557 58 103 0.0 2.0 0.00 0.00 0.00 83 1017.5
20260506073054 58 101 0.0 0.0 0.00 0.00 0.00 82 1017.6
20260506071558 59 0 0.0 1.0 0.00 0.00 0.00 82 1017.4
20260506061555 59 103 0.0 3.0 0.00 0.00 0.00 83 1017.0
20260506044553 61 0 0.0 3.0 0.00 0.00 0.00 82 1016.3
20260506043056 61 96 0.0 2.0 0.00 0.00 0.00 80 1016.2
20260506041604 61 101 0.0 3.0 0.00 0.00 0.00 79 1016.0
20260506040058 61 101 0.0 2.0 0.00 0.00 0.00 78 1016.0
20260506034557 61 0 0.0 2.0 0.00 0.00 0.00 79 1015.5
20260506033054 61 0 0.0 2.0 0.00 0.00 0.00 78 1015.3
20260506031555 61 0 0.0 2.0 0.00 0.00 0.00 78 1015.3
20260506030053 62 134 0.0 3.0 0.00 0.00 0.00 77 1015.1
20260506024553 62 128 0.0 3.0 0.00 0.00 0.00 76 1014.7
20260506023106 63 114 0.0 4.0 0.00 0.00 0.00 75 1014.6
20260506021612 63 0 0.0 3.0 0.00 0.00 0.00 74 1014.5
20260506020052 64 81 1.0 4.0 0.00 0.00 0.00 73 1014.4
20260506014553 64 96 1.0 4.0 0.00 0.00 0.00 71 1014.3
20260506013100 64 101 0.0 6.0 0.00 0.00 0.00 71 1014.3
20260506011614 65 0 0.0 5.0 0.00 0.00 0.00 68 1014.2
20260506010058 66 92 1.0 4.0 0.00 0.00 0.00 61 1014.1
20260506004555 66 127 1.0 4.0 0.00 0.00 0.00 60 1014.1
20260506003054 67 109 1.0 7.0 0.00 0.00 0.00 63 1014.1
20260506001555 67 0 1.0 8.0 0.00 0.00 0.00 65 1014.1
20260506000051 67 121 1.0 6.0 0.00 0.00 0.00 66 1014.0
20260505234551 66 167 1.0 5.0 0.00 0.00 0.00 65 1014.0
20260505233051 69 133 1.0 5.0 0.00 0.00 0.00 63 1014.2
20260505231607 68 0 1.0 9.0 0.00 0.00 0.00 62 1014.1
20260505230052 68 211 1.0 6.0 0.00 0.00 0.00 61 1014.1
20260505224556 67 78 2.0 8.0 0.00 0.00 0.00 62 1014.3
20260505223052 67 33 2.0 9.0 0.00 0.00 0.00 59 1014.4
20260505221600 67 173 2.0 8.0 0.00 0.00 0.00 59 1014.6
20260505220101 68 102 1.0 7.0 0.00 0.00 0.00 60 1014.6
20260505214558 68 161 2.0 9.0 0.00 0.00 0.00 60 1014.7
20260505213049 67 157 2.0 9.0 0.00 0.00 0.00 60 1014.8
20260505211552 66 93 2.0 11.0 0.00 0.00 0.00 65 1014.8
20260505210051 67 120 1.0 9.0 0.00 0.00 0.00 63 1015.0
20260505204552 66 99 1.0 8.0 0.00 0.00 0.00 63 1015.0
20260505203107 66 114 1.0 8.0 0.00 0.00 0.00 64 1014.9
20260505201603 65 112 1.0 6.0 0.00 0.00 0.00 63 1015.0
20260505200055 65 138 1.0 9.0 0.00 0.00 0.00 64 1015.0
20260505194552 66 115 1.0 12.0 0.00 0.00 0.00 65 1015.1
20260505193051 65 156 2.0 11.0 0.00 0.00 0.00 67 1015.2
20260505191600 65 140 2.0 9.0 0.00 0.00 0.00 67 1015.3
20260505190053 64 132 2.0 10.0 0.00 0.00 0.00 67 1015.3
20260505184552 64 114 2.0 12.0 0.00 0.00 0.00 67 1015.4
20260505183052 65 126 1.0 5.0 0.00 0.00 0.00 67 1015.3
20260505181552 65 142 1.0 9.0 0.00 0.00 0.00 69 1015.3
20260505180057 64 124 3.0 11.0 0.00 0.00 0.00 67 1015.1
20260505174550 64 183 2.0 10.0 0.00 0.00 0.00 69 1015.1
20260505173057 63 128 2.0 10.0 0.00 0.00 0.00 74 1014.8
20260505171550 62 0 2.0 8.0 0.00 0.00 0.00 77 1014.7
20260505170106 63 0 3.0 9.0 0.00 0.00 0.00 73 1014.6
20260505164550 63 130 3.0 9.0 0.00 0.00 0.00 74 1014.5
20260505163051 63 123 1.0 8.0 0.00 0.00 0.00 74 1014.4
20260505161614 63 112 2.0 9.0 0.00 0.00 0.00 75 1014.2
20260505153103 62 115 1.0 9.0 0.00 0.00 0.00 79 1013.9
20260505151603 61 130 2.0 6.0 0.00 0.00 0.00 80 1013.7
20260505124554 57 119 1.0 7.0 0.00 0.00 0.00 85 1013.3
20260505123059 57 126 1.0 5.0 0.00 0.00 0.00 85 1013.3
20260505121630 57 131 1.0 4.0 0.00 0.00 0.00 84 1013.2
20260505120055 57 140 1.0 4.0 0.00 0.00 0.00 83 1013.2
20260505114554 58 163 1.0 5.0 0.00 0.00 0.00 82 1013.2
20260505113050 58 153 0.0 4.0 0.00 0.00 0.00 82 1013.2